Location: Brede
(50.9167°N, 0.6000°E)
Time: 19:11:33
(UTC+00:00)

SL-24 DEB - Pass Details

Date: 08 August 2020
Orbit: 664 x 701 km, 92.0° (Epoch: 24 September)

Event Time Altitude Azimuth Distance (km) Brightness Sun altitude
Rises 23:58:50 0° 3° (N) 3,104 9.1 -23.0°
Reaches altitude 10° 00:01:07 10° 3° (N) 2,180 8.0 -23.0°
Maximum altitude 00:05:56 79° 277° (W) 718 4.2 -23.0°
Enters shadow 00:06:38 64° 210° (SSW) 776 4.2 -23.0°
